Year,Month,Day,Hour,Minute,Value (Times are PST for temperature in C)
2015,09,21,00,00,11.70
2015,09,21,00,01,11.70
2015,09,21,00,02,11.70
2015,09,21,00,03,11.70
2015,09,21,00,04,11.70
2015,09,21,00,05,11.70
2015,09,21,00,07,11.80
2015,09,21,00,09,11.80
2015,09,21,00,10,11.80
2015,09,21,00,12,11.80
2015,09,21,00,13,11.70
2015,09,21,00,14,11.70
2015,09,21,00,16,11.70
2015,09,21,00,17,11.70
2015,09,21,00,18,11.70
2015,09,21,00,19,11.70
2015,09,21,00,21,11.70
2015,09,21,00,22,11.70
2015,09,21,00,23,11.70
2015,09,21,00,24,11.70
2015,09,21,00,26,11.80
2015,09,21,00,27,11.80
2015,09,21,00,28,11.80
2015,09,21,00,29,11.80
2015,09,21,00,31,11.80
2015,09,21,00,32,11.80
2015,09,21,00,33,11.80
2015,09,21,00,34,11.80
2015,09,21,00,36,11.80
2015,09,21,00,37,11.90
2015,09,21,00,38,11.90
2015,09,21,00,39,11.90
2015,09,21,00,41,12.00
2015,09,21,00,42,12.00
2015,09,21,00,43,12.00
2015,09,21,00,44,12.00
2015,09,21,00,46,12.00
2015,09,21,00,47,12.00
2015,09,21,00,48,12.00
2015,09,21,00,49,12.00
2015,09,21,00,51,12.00
2015,09,21,00,52,12.00
2015,09,21,00,53,12.00
2015,09,21,00,54,12.00
2015,09,21,00,56,12.00
2015,09,21,00,57,12.00
2015,09,21,00,58,12.00
2015,09,21,00,59,12.00
2015,09,21,01,01,12.00
2015,09,21,01,02,12.10
2015,09,21,01,03,12.10
2015,09,21,01,04,12.10
2015,09,21,01,06,12.10
2015,09,21,01,07,12.10
2015,09,21,01,08,12.10
2015,09,21,01,09,12.10
2015,09,21,01,11,12.10
2015,09,21,01,12,12.10
2015,09,21,01,13,12.10
2015,09,21,01,14,12.10
2015,09,21,01,16,12.10
2015,09,21,01,17,12.10
2015,09,21,01,18,12.00
2015,09,21,01,19,12.00
2015,09,21,01,21,12.00
2015,09,21,01,22,12.00
2015,09,21,01,23,12.00
2015,09,21,01,24,12.00
2015,09,21,01,26,12.00
2015,09,21,01,27,12.00
2015,09,21,01,28,12.00
2015,09,21,01,29,11.90
2015,09,21,01,31,11.90
2015,09,21,01,32,11.90
2015,09,21,01,33,11.90
2015,09,21,01,34,12.00
2015,09,21,01,36,12.00
2015,09,21,01,37,12.00
2015,09,21,01,38,12.00
2015,09,21,01,39,12.00
2015,09,21,01,41,12.00
2015,09,21,01,42,12.00
2015,09,21,01,43,12.00
2015,09,21,01,44,12.00
2015,09,21,01,46,12.00
2015,09,21,01,47,12.00
2015,09,21,01,48,12.00
2015,09,21,01,49,12.00
2015,09,21,01,51,12.00
2015,09,21,01,52,12.00
2015,09,21,01,53,12.00
2015,09,21,01,54,12.00
2015,09,21,01,56,12.00
2015,09,21,01,57,12.00
2015,09,21,01,58,11.90
2015,09,21,01,59,11.90
2015,09,21,02,01,11.90
2015,09,21,02,02,11.90
2015,09,21,02,03,11.90
2015,09,21,02,04,11.90
2015,09,21,02,06,11.90
2015,09,21,02,07,11.90
2015,09,21,02,08,11.90
2015,09,21,02,09,11.90
2015,09,21,02,11,11.90
2015,09,21,02,12,11.90
2015,09,21,02,13,11.90
2015,09,21,02,14,11.90
2015,09,21,02,15,11.90
2015,09,21,02,16,11.90
2015,09,21,02,17,11.90
2015,09,21,02,18,11.80
2015,09,21,02,19,11.80
2015,09,21,02,20,11.80
2015,09,21,02,21,11.80
2015,09,21,02,22,11.80
2015,09,21,02,23,11.80
2015,09,21,02,24,11.80
2015,09,21,02,25,11.80
2015,09,21,02,26,11.80
2015,09,21,02,27,11.80
2015,09,21,02,28,11.80
2015,09,21,02,29,11.80
2015,09,21,02,30,11.80
2015,09,21,02,31,11.80
2015,09,21,02,32,11.80
2015,09,21,02,33,11.80
2015,09,21,02,34,11.80
2015,09,21,02,35,11.80
2015,09,21,02,36,11.80
2015,09,21,02,37,11.80
2015,09,21,02,38,11.80
2015,09,21,02,39,11.80
2015,09,21,02,40,11.80
2015,09,21,02,41,11.80
2015,09,21,02,42,11.80
2015,09,21,02,43,11.80
2015,09,21,02,44,11.80
2015,09,21,02,45,11.80
2015,09,21,02,46,11.80
2015,09,21,02,47,11.80
2015,09,21,02,48,11.80
2015,09,21,02,49,11.80
2015,09,21,02,50,11.80
2015,09,21,02,51,11.80
2015,09,21,02,52,11.80
2015,09,21,02,53,11.80
2015,09,21,02,54,11.80
2015,09,21,02,55,11.70
2015,09,21,02,57,11.70
2015,09,21,02,58,11.70
2015,09,21,02,59,11.70
2015,09,21,03,01,11.70
2015,09,21,03,02,11.70
2015,09,21,03,03,11.70
2015,09,21,03,04,11.70
2015,09,21,03,06,11.70
2015,09,21,03,07,11.70
2015,09,21,03,08,11.70
2015,09,21,03,09,11.70
2015,09,21,03,11,11.70
2015,09,21,03,12,11.70
2015,09,21,03,13,11.80
2015,09,21,03,14,11.80
2015,09,21,03,16,11.80
2015,09,21,03,17,11.80
2015,09,21,03,18,11.80
2015,09,21,03,19,11.80
2015,09,21,03,21,11.80
2015,09,21,03,22,11.80
2015,09,21,03,23,11.80
2015,09,21,03,24,11.80
2015,09,21,03,26,11.80
2015,09,21,03,27,11.80
2015,09,21,03,28,11.80
2015,09,21,03,29,11.80
2015,09,21,03,31,11.80
2015,09,21,03,32,11.70
2015,09,21,03,33,11.70
2015,09,21,03,34,11.70
2015,09,21,03,36,11.60
2015,09,21,03,37,11.60
2015,09,21,03,38,11.60
2015,09,21,03,39,11.60
2015,09,21,03,41,11.60
2015,09,21,03,42,11.60
2015,09,21,03,43,11.60
2015,09,21,03,44,11.60
2015,09,21,03,46,11.60
2015,09,21,03,47,11.60
2015,09,21,03,48,11.40
2015,09,21,03,49,11.40
2015,09,21,03,51,11.40
2015,09,21,03,52,11.40
2015,09,21,03,53,11.40
2015,09,21,03,54,11.40
2015,09,21,03,56,11.40
2015,09,21,03,57,11.40
2015,09,21,03,58,11.40
2015,09,21,03,59,11.40
2015,09,21,04,01,11.40
2015,09,21,04,02,11.40
2015,09,21,04,03,11.40
2015,09,21,04,04,11.40
2015,09,21,04,06,11.40
2015,09,21,04,07,11.40
2015,09,21,04,08,11.40
2015,09,21,04,09,11.40
2015,09,21,04,11,11.60
2015,09,21,04,12,11.60
2015,09,21,04,13,11.60
2015,09,21,04,14,11.60
2015,09,21,04,16,11.60
2015,09,21,04,17,11.60
2015,09,21,04,18,11.60
2015,09,21,04,19,11.60
2015,09,21,04,21,11.60
2015,09,21,04,22,11.60
2015,09,21,04,23,11.60
2015,09,21,04,24,11.60
2015,09,21,04,26,11.60
2015,09,21,04,27,11.60
2015,09,21,04,28,11.60
2015,09,21,04,29,11.60
2015,09,21,04,31,11.60
2015,09,21,04,32,11.60
2015,09,21,04,33,11.60
2015,09,21,04,34,11.60
2015,09,21,04,35,11.60
2015,09,21,04,36,11.60
2015,09,21,04,37,11.60
2015,09,21,04,38,11.60
2015,09,21,04,39,11.40
2015,09,21,04,40,11.40
2015,09,21,04,41,11.40
2015,09,21,04,42,11.40
2015,09,21,04,43,11.40
2015,09,21,04,44,11.40
2015,09,21,04,45,11.40
2015,09,21,04,46,11.40
2015,09,21,04,47,11.40
2015,09,21,04,48,11.60
2015,09,21,04,49,11.60
2015,09,21,04,50,11.60
2015,09,21,04,51,11.60
2015,09,21,04,52,11.60
2015,09,21,04,53,11.60
2015,09,21,04,54,11.60
2015,09,21,04,55,11.60
2015,09,21,04,56,11.60
2015,09,21,04,57,11.60
2015,09,21,04,58,11.60
2015,09,21,04,59,11.70
2015,09,21,05,00,11.70
2015,09,21,05,01,11.70
2015,09,21,05,02,11.70
2015,09,21,05,03,11.70
2015,09,21,05,04,11.80
2015,09,21,05,05,11.80
2015,09,21,05,06,11.80
2015,09,21,05,07,11.80
2015,09,21,05,08,11.80
2015,09,21,05,09,11.80
2015,09,21,05,10,11.80
2015,09,21,05,12,11.80
2015,09,21,05,13,11.80
2015,09,21,05,14,11.80
2015,09,21,05,16,11.80
2015,09,21,05,17,11.80
2015,09,21,05,18,11.80
2015,09,21,05,19,11.80
2015,09,21,05,21,11.90
2015,09,21,05,22,11.90
2015,09,21,05,23,11.90
2015,09,21,05,24,11.90
2015,09,21,05,26,11.90
2015,09,21,05,27,11.90
2015,09,21,05,28,11.90
2015,09,21,05,29,11.90
2015,09,21,05,31,11.90
2015,09,21,05,32,11.90
2015,09,21,05,33,12.00
2015,09,21,05,34,12.00
2015,09,21,05,36,12.00
2015,09,21,05,37,12.00
2015,09,21,05,38,12.00
2015,09,21,05,39,12.00
2015,09,21,05,41,12.00
2015,09,21,05,42,12.00
2015,09,21,05,43,12.00
2015,09,21,05,44,12.00
2015,09,21,05,46,12.00
2015,09,21,05,47,12.00
2015,09,21,05,48,12.00
2015,09,21,05,49,12.00
2015,09,21,05,51,11.90
2015,09,21,05,52,11.90
2015,09,21,05,53,11.90
2015,09,21,05,54,11.90
2015,09,21,05,56,11.90
2015,09,21,05,57,11.90
2015,09,21,05,58,11.90
2015,09,21,05,59,11.90
2015,09,21,06,01,11.90
2015,09,21,06,02,11.90
2015,09,21,06,03,11.90
2015,09,21,06,04,11.90
2015,09,21,06,06,11.90
2015,09,21,06,07,11.90
2015,09,21,06,08,11.90
2015,09,21,06,09,11.90
2015,09,21,06,11,11.90
2015,09,21,06,12,11.90
2015,09,21,06,13,11.90
2015,09,21,06,14,11.90
2015,09,21,06,16,11.90
2015,09,21,06,17,11.90
2015,09,21,06,18,11.90
2015,09,21,06,19,11.90
2015,09,21,06,21,11.90
2015,09,21,06,22,11.90
2015,09,21,06,23,11.90
2015,09,21,06,24,11.90
2015,09,21,06,26,11.90
2015,09,21,06,27,11.90
2015,09,21,06,28,11.90
2015,09,21,06,29,11.90
2015,09,21,06,31,11.90
2015,09,21,06,32,11.90
2015,09,21,06,33,11.90
2015,09,21,06,34,11.90
2015,09,21,06,36,11.90
2015,09,21,06,37,11.90
2015,09,21,06,38,11.90
2015,09,21,06,39,11.80
2015,09,21,06,41,11.80
2015,09,21,06,42,11.80
2015,09,21,06,43,11.80
2015,09,21,06,44,11.80
2015,09,21,06,46,11.80
2015,09,21,06,47,11.80
2015,09,21,06,48,11.80
2015,09,21,06,49,11.80
2015,09,21,06,51,11.80
2015,09,21,06,52,11.80
2015,09,21,06,53,11.80
2015,09,21,06,54,11.80
2015,09,21,06,55,11.80
2015,09,21,06,56,11.90
2015,09,21,06,57,11.90
2015,09,21,06,58,11.90
2015,09,21,06,59,11.90
2015,09,21,07,00,11.90
2015,09,21,07,01,11.90
2015,09,21,07,02,11.90
2015,09,21,07,03,11.90
2015,09,21,07,04,12.00
2015,09,21,07,05,12.00
2015,09,21,07,06,12.00
2015,09,21,07,07,12.00
2015,09,21,07,08,12.00
2015,09,21,07,09,12.00
2015,09,21,07,10,12.00
2015,09,21,07,11,12.00
2015,09,21,07,12,12.10
2015,09,21,07,13,12.10
2015,09,21,07,14,12.10
2015,09,21,07,15,12.10
2015,09,21,07,16,12.10
2015,09,21,07,17,12.10
2015,09,21,07,18,12.10
2015,09,21,07,19,12.10
2015,09,21,07,20,12.10
2015,09,21,07,21,12.20
2015,09,21,07,22,12.20
2015,09,21,07,23,12.20
2015,09,21,07,24,12.30
2015,09,21,07,25,12.30
2015,09,21,07,26,12.30
2015,09,21,07,27,12.30
2015,09,21,07,28,12.30
2015,09,21,07,29,12.30
2015,09,21,07,30,12.30
2015,09,21,07,31,12.30
2015,09,21,07,32,12.30
2015,09,21,07,33,12.30
2015,09,21,07,34,12.20
2015,09,21,07,35,12.20
2015,09,21,07,36,12.20
2015,09,21,07,37,12.20
2015,09,21,07,39,12.10
2015,09,21,07,41,12.00
2015,09,21,07,42,11.90
2015,09,21,07,43,11.80
2015,09,21,07,44,11.80
2015,09,21,07,46,11.70
2015,09,21,07,47,11.60
2015,09,21,07,48,11.60
2015,09,21,07,49,11.60
2015,09,21,07,51,11.60
2015,09,21,07,52,11.60
2015,09,21,07,53,11.60
2015,09,21,07,54,11.40
2015,09,21,07,56,11.40
2015,09,21,07,57,11.40
2015,09,21,07,58,11.40
2015,09,21,07,59,11.60
2015,09,21,08,01,11.60
2015,09,21,08,02,11.60
2015,09,21,08,03,11.60
2015,09,21,08,04,11.60
2015,09,21,08,06,11.60
2015,09,21,08,07,11.60
2015,09,21,08,08,11.60
2015,09,21,08,09,11.60
2015,09,21,08,11,11.60
2015,09,21,08,12,11.60
2015,09,21,08,13,11.60
2015,09,21,08,14,11.60
2015,09,21,08,16,11.60
2015,09,21,08,17,11.60
2015,09,21,08,18,11.60
2015,09,21,08,19,11.60
2015,09,21,08,21,11.60
2015,09,21,08,22,11.60
2015,09,21,08,23,11.60
2015,09,21,08,24,11.60
2015,09,21,08,26,11.60
2015,09,21,08,27,11.60
2015,09,21,08,28,11.40
2015,09,21,08,29,11.60
2015,09,21,08,31,11.60
2015,09,21,08,32,11.60
2015,09,21,08,33,11.60
2015,09,21,08,34,11.60
2015,09,21,08,36,11.70
2015,09,21,08,37,11.70
2015,09,21,08,38,11.70
2015,09,21,08,39,11.80
2015,09,21,08,41,11.80
2015,09,21,08,42,11.80
2015,09,21,08,43,11.80
2015,09,21,08,44,11.80
2015,09,21,08,46,11.80
2015,09,21,08,47,11.80
2015,09,21,08,48,11.90
2015,09,21,08,49,11.90
2015,09,21,08,51,11.90
2015,09,21,08,52,11.90
2015,09,21,08,53,11.90
2015,09,21,08,54,11.90
2015,09,21,08,56,12.00
2015,09,21,08,57,12.00
2015,09,21,08,58,12.10
2015,09,21,08,59,12.10
2015,09,21,09,01,12.10
2015,09,21,09,02,12.10
2015,09,21,09,03,12.10
2015,09,21,09,04,12.20
2015,09,21,09,06,12.20
2015,09,21,09,07,12.20
2015,09,21,09,08,12.30
2015,09,21,09,09,12.30
2015,09,21,09,11,12.30
2015,09,21,09,12,12.30
2015,09,21,09,13,12.30
2015,09,21,09,14,12.40
2015,09,21,09,15,12.40
2015,09,21,09,16,12.40
2015,09,21,09,17,12.40
2015,09,21,09,18,12.50
2015,09,21,09,19,12.50
2015,09,21,09,21,12.50
2015,09,21,09,22,12.50
2015,09,21,09,23,12.50
2015,09,21,09,24,12.60
2015,09,21,09,25,12.60
2015,09,21,09,26,12.70
2015,09,21,09,27,12.70
2015,09,21,09,28,12.80
2015,09,21,09,29,12.80
2015,09,21,09,30,12.80
2015,09,21,09,31,12.90
2015,09,21,09,32,13.00
2015,09,21,09,33,13.10
2015,09,21,09,34,13.20
2015,09,21,09,35,13.30
2015,09,21,09,36,13.30
2015,09,21,09,37,13.30
2015,09,21,09,38,13.40
2015,09,21,09,39,13.50
2015,09,21,09,40,13.60
2015,09,21,09,41,13.70
2015,09,21,09,42,13.70
2015,09,21,09,43,13.80
2015,09,21,09,44,13.90
2015,09,21,09,45,14.00
2015,09,21,09,46,14.00
2015,09,21,09,47,13.90
2015,09,21,09,48,13.90
2015,09,21,09,49,13.90
2015,09,21,09,50,13.80
2015,09,21,09,51,13.80
2015,09,21,09,52,13.80
2015,09,21,09,53,13.80
2015,09,21,09,54,13.80
2015,09,21,09,55,13.90
2015,09,21,09,56,14.00
2015,09,21,09,57,14.00
2015,09,21,09,59,14.10
2015,09,21,10,01,14.10
2015,09,21,10,02,14.20
2015,09,21,10,03,14.20
2015,09,21,10,04,14.30
2015,09,21,10,06,14.50
2015,09,21,10,07,14.50
2015,09,21,10,08,14.60
2015,09,21,10,09,14.70
2015,09,21,10,11,14.80
2015,09,21,10,12,14.80
2015,09,21,10,13,14.80
2015,09,21,10,14,14.80
2015,09,21,10,16,14.60
2015,09,21,10,17,14.50
2015,09,21,10,18,14.40
2015,09,21,10,19,14.20
2015,09,21,10,21,14.20
2015,09,21,10,22,14.10
2015,09,21,10,23,14.10
2015,09,21,10,24,14.20
2015,09,21,10,26,14.20
2015,09,21,10,27,14.20
2015,09,21,10,28,14.20
2015,09,21,10,29,14.30
2015,09,21,10,31,14.50
2015,09,21,10,32,14.60
2015,09,21,10,33,14.70
2015,09,21,10,34,14.80
2015,09,21,10,36,14.90
2015,09,21,10,37,14.90
2015,09,21,10,38,15.00
2015,09,21,10,39,15.00
2015,09,21,10,41,14.90
2015,09,21,10,42,15.00
2015,09,21,10,43,15.00
2015,09,21,10,44,15.00
2015,09,21,10,46,15.10
2015,09,21,10,47,15.20
2015,09,21,10,48,15.20
2015,09,21,10,49,15.30
2015,09,21,10,51,15.30
2015,09,21,10,52,15.40
2015,09,21,10,53,15.40
2015,09,21,10,54,15.50
2015,09,21,10,56,15.60
2015,09,21,10,57,15.70
2015,09,21,10,58,15.80
2015,09,21,10,59,15.80
2015,09,21,11,01,15.80
2015,09,21,11,02,15.90
2015,09,21,11,03,16.10
2015,09,21,11,04,16.10
2015,09,21,11,06,16.10
2015,09,21,11,07,16.20
2015,09,21,11,08,16.20
2015,09,21,11,09,16.30
2015,09,21,11,11,16.30
2015,09,21,11,12,16.40
2015,09,21,11,13,16.40
2015,09,21,11,14,16.40
2015,09,21,11,16,16.40
2015,09,21,11,17,16.40
2015,09,21,11,18,16.40
2015,09,21,11,19,16.40
2015,09,21,11,21,16.40
2015,09,21,11,22,16.40
2015,09,21,11,23,16.40
2015,09,21,11,24,16.40
2015,09,21,11,26,16.40
2015,09,21,11,27,16.40
2015,09,21,11,28,16.40
2015,09,21,11,29,16.40
2015,09,21,11,31,16.40
2015,09,21,11,32,16.40
2015,09,21,11,33,16.40
2015,09,21,11,34,16.30
2015,09,21,11,36,16.30
2015,09,21,11,37,16.30
2015,09,21,11,38,16.30
2015,09,21,11,39,16.30
2015,09,21,11,41,16.40
2015,09,21,11,42,16.40
2015,09,21,11,43,16.40
2015,09,21,11,44,16.40
2015,09,21,11,46,16.60
2015,09,21,11,47,16.60
2015,09,21,11,48,16.60
2015,09,21,11,49,16.60
2015,09,21,11,51,16.70
2015,09,21,11,52,16.70
2015,09,21,11,53,16.70
2015,09,21,11,54,16.70
2015,09,21,11,56,16.70
2015,09,21,11,57,16.60
2015,09,21,11,58,16.60
2015,09,21,11,59,16.60
2015,09,21,12,01,16.60
2015,09,21,12,02,16.60
2015,09,21,12,03,16.60
2015,09,21,12,04,16.60
2015,09,21,12,05,16.60
2015,09,21,12,06,16.60
2015,09,21,12,07,16.60
2015,09,21,12,08,16.60
2015,09,21,12,09,16.60
2015,09,21,12,10,16.70
2015,09,21,12,11,16.70
2015,09,21,12,12,16.70
2015,09,21,12,13,16.70
2015,09,21,12,14,16.70
2015,09,21,12,15,16.60
2015,09,21,12,16,16.60
2015,09,21,12,17,16.40
2015,09,21,12,18,16.40
2015,09,21,12,19,16.30
2015,09,21,12,20,16.30
2015,09,21,12,21,16.20
2015,09,21,12,22,16.10
2015,09,21,12,23,16.10
2015,09,21,12,24,16.10
2015,09,21,12,25,15.90
2015,09,21,12,26,15.80
2015,09,21,12,27,15.80
2015,09,21,12,28,15.80
2015,09,21,12,29,15.70
2015,09,21,12,30,15.60
2015,09,21,12,31,15.60
2015,09,21,12,32,15.50
2015,09,21,12,33,15.40
2015,09,21,12,34,15.30
2015,09,21,12,35,15.30
2015,09,21,12,36,15.30
2015,09,21,12,37,15.20
2015,09,21,12,38,15.20
2015,09,21,12,39,15.10
2015,09,21,12,41,15.00
2015,09,21,12,42,14.90
2015,09,21,12,44,14.90
2015,09,21,12,46,14.90
2015,09,21,12,47,14.90
2015,09,21,12,48,14.80
2015,09,21,12,49,14.80
2015,09,21,12,51,14.80
2015,09,21,12,52,14.80
2015,09,21,12,53,14.80
2015,09,21,12,54,14.70
2015,09,21,12,56,14.60
2015,09,21,12,57,14.60
2015,09,21,12,58,14.60
2015,09,21,12,59,14.50
2015,09,21,13,01,14.50
2015,09,21,13,02,14.50
2015,09,21,13,03,14.50
2015,09,21,13,04,14.50
2015,09,21,13,06,14.50
2015,09,21,13,07,14.50
2015,09,21,13,08,14.50
2015,09,21,13,09,14.40
2015,09,21,13,11,14.50
2015,09,21,13,12,14.50
2015,09,21,13,13,14.50
2015,09,21,13,14,14.50
2015,09,21,13,16,14.60
2015,09,21,13,17,14.60
2015,09,21,13,18,14.60
2015,09,21,13,19,14.60
2015,09,21,13,21,14.70
2015,09,21,13,22,14.70
2015,09,21,13,23,14.70
2015,09,21,13,24,14.70
2015,09,21,13,26,14.70
2015,09,21,13,27,14.80
2015,09,21,13,28,14.80
2015,09,21,13,29,14.80
2015,09,21,13,31,14.80
2015,09,21,13,32,14.80
2015,09,21,13,33,14.80
2015,09,21,13,34,14.80
2015,09,21,13,36,14.80
2015,09,21,13,37,14.80
2015,09,21,13,38,14.80
2015,09,21,13,39,14.80
2015,09,21,13,41,14.80
2015,09,21,13,42,14.80
2015,09,21,13,43,14.80
2015,09,21,13,44,14.80
2015,09,21,13,46,14.80
2015,09,21,13,47,14.80
2015,09,21,13,48,14.90
2015,09,21,13,49,14.90
2015,09,21,13,51,15.00
2015,09,21,13,52,15.10
2015,09,21,13,53,15.20
2015,09,21,13,54,15.20
2015,09,21,13,56,15.30
2015,09,21,13,57,15.30
2015,09,21,13,58,15.30
2015,09,21,13,59,15.40
2015,09,21,14,01,15.50
2015,09,21,14,02,15.60
2015,09,21,14,03,15.60
2015,09,21,14,04,15.70
2015,09,21,14,06,15.80
2015,09,21,14,07,15.80
2015,09,21,14,08,15.80
2015,09,21,14,09,15.90
2015,09,21,14,11,16.10
2015,09,21,14,12,16.10
2015,09,21,14,13,16.10
2015,09,21,14,14,16.10
2015,09,21,14,15,16.20
2015,09,21,14,16,16.20
2015,09,21,14,17,16.20
2015,09,21,14,18,16.30
2015,09,21,14,19,16.30
2015,09,21,14,20,16.40
2015,09,21,14,21,16.40
2015,09,21,14,22,16.40
2015,09,21,14,23,16.60
2015,09,21,14,24,16.60
2015,09,21,14,25,16.60
2015,09,21,14,26,16.70
2015,09,21,14,27,16.70
2015,09,21,14,28,16.70
2015,09,21,14,29,16.70
2015,09,21,14,30,16.70
2015,09,21,14,31,16.70
2015,09,21,14,32,16.70
2015,09,21,14,33,16.70
2015,09,21,14,34,16.70
2015,09,21,14,35,16.70
2015,09,21,14,36,16.70
2015,09,21,14,37,16.70
2015,09,21,14,38,16.70
2015,09,21,14,39,16.60
2015,09,21,14,40,16.60
2015,09,21,14,41,16.40
2015,09,21,14,42,16.20
2015,09,21,14,43,16.10
2015,09,21,14,44,15.90
2015,09,21,14,45,15.80
2015,09,21,14,46,15.80
2015,09,21,14,47,15.80
2015,09,21,14,48,15.80
2015,09,21,14,49,15.80
2015,09,21,14,50,15.80
2015,09,21,14,51,15.80
2015,09,21,14,52,15.80
2015,09,21,14,54,15.90
2015,09,21,14,56,16.10
2015,09,21,14,57,16.10
2015,09,21,14,58,16.20
2015,09,21,14,59,16.30
2015,09,21,15,01,16.40
2015,09,21,15,02,16.40
2015,09,21,15,03,16.40
2015,09,21,15,04,16.40
2015,09,21,15,06,16.60
2015,09,21,15,07,16.60
2015,09,21,15,08,16.70
2015,09,21,15,09,16.70
2015,09,21,15,11,16.70
2015,09,21,15,12,16.70
2015,09,21,15,13,16.70
2015,09,21,15,14,16.70
2015,09,21,15,16,16.70
2015,09,21,15,17,16.70
2015,09,21,15,18,16.70
2015,09,21,15,19,16.70
2015,09,21,15,21,16.70
2015,09,21,15,22,16.70
2015,09,21,15,23,16.70
2015,09,21,15,24,16.70
2015,09,21,15,26,16.80
2015,09,21,15,27,16.80
2015,09,21,15,28,16.80
2015,09,21,15,29,16.80
2015,09,21,15,31,16.80
2015,09,21,15,32,16.80
2015,09,21,15,33,16.80
2015,09,21,15,34,16.80
2015,09,21,15,36,16.70
2015,09,21,15,37,16.70
2015,09,21,15,38,16.80
2015,09,21,15,39,16.80
2015,09,21,15,41,16.80
2015,09,21,15,42,16.80
2015,09,21,15,43,16.80
2015,09,21,15,44,16.70
2015,09,21,15,46,16.70
2015,09,21,15,47,16.70
2015,09,21,15,48,16.70
2015,09,21,15,49,16.70
2015,09,21,15,52,16.70
2015,09,21,15,53,16.70
2015,09,21,15,54,16.70
2015,09,21,15,56,16.70
2015,09,21,15,57,16.70
2015,09,21,15,58,16.70
2015,09,21,15,59,16.70
2015,09,21,16,01,16.70
2015,09,21,16,02,16.70
2015,09,21,16,03,16.70
2015,09,21,16,04,16.70
2015,09,21,16,06,16.70
2015,09,21,16,07,16.70
2015,09,21,16,08,16.70
2015,09,21,16,09,16.70
2015,09,21,16,11,16.60
2015,09,21,16,12,16.60
2015,09,21,16,13,16.40
2015,09,21,16,14,16.40
2015,09,21,16,16,16.40
2015,09,21,16,17,16.40
2015,09,21,16,18,16.30
2015,09,21,16,19,16.20
2015,09,21,16,21,16.10
2015,09,21,16,22,16.10
2015,09,21,16,23,15.90
2015,09,21,16,24,15.90
2015,09,21,16,26,15.80
2015,09,21,16,27,15.80
2015,09,21,16,28,15.80
2015,09,21,16,29,15.80
2015,09,21,16,31,15.70
2015,09,21,16,32,15.70
2015,09,21,16,33,15.70
2015,09,21,16,34,15.70
2015,09,21,16,36,15.80
2015,09,21,16,37,15.80
2015,09,21,16,38,15.80
2015,09,21,16,39,15.80
2015,09,21,16,41,15.90
2015,09,21,16,42,15.90
2015,09,21,16,43,15.90
2015,09,21,16,44,15.90
2015,09,21,16,45,15.90
2015,09,21,16,46,15.90
2015,09,21,16,47,15.90
2015,09,21,16,48,15.90
2015,09,21,16,49,16.10
2015,09,21,16,51,16.10
2015,09,21,16,52,16.10
2015,09,21,16,53,16.10
2015,09,21,16,54,16.10
2015,09,21,16,55,16.10
2015,09,21,16,56,16.10
2015,09,21,16,57,16.10
2015,09,21,16,58,16.10
2015,09,21,16,59,16.10
2015,09,21,17,00,16.10
2015,09,21,17,01,16.10
2015,09,21,17,02,16.10
2015,09,21,17,03,16.10
2015,09,21,17,04,16.10
2015,09,21,17,05,16.10
2015,09,21,17,06,16.10
2015,09,21,17,07,16.10
2015,09,21,17,08,16.10
2015,09,21,17,09,16.10
2015,09,21,17,10,16.10
2015,09,21,17,11,16.10
2015,09,21,17,12,16.10
2015,09,21,17,13,16.10
2015,09,21,17,14,16.10
2015,09,21,17,15,16.10
2015,09,21,17,16,16.10
2015,09,21,17,17,16.10
2015,09,21,17,18,16.10
2015,09,21,17,19,16.10
2015,09,21,17,20,16.10
2015,09,21,17,22,16.10
2015,09,21,17,23,16.10
2015,09,21,17,24,16.10
2015,09,21,17,26,16.10
2015,09,21,17,27,16.10
2015,09,21,17,28,16.10
2015,09,21,17,29,16.10
2015,09,21,17,31,16.10
2015,09,21,17,32,16.10
2015,09,21,17,33,16.10
2015,09,21,17,34,16.10
2015,09,21,17,36,16.10
2015,09,21,17,37,16.10
2015,09,21,17,38,16.10
2015,09,21,17,39,15.90
2015,09,21,17,41,15.90
2015,09,21,17,42,15.90
2015,09,21,17,43,15.90
2015,09,21,17,44,15.80
2015,09,21,17,46,15.80
2015,09,21,17,47,15.80
2015,09,21,17,48,15.80
2015,09,21,17,49,15.80
2015,09,21,17,51,15.80
2015,09,21,17,52,15.80
2015,09,21,17,53,15.80
2015,09,21,17,54,15.80
2015,09,21,17,56,15.80
2015,09,21,17,57,15.80
2015,09,21,17,58,15.80
2015,09,21,17,59,15.70
2015,09,21,18,01,15.70
2015,09,21,18,02,15.70
2015,09,21,18,03,15.60
2015,09,21,18,04,15.60
2015,09,21,18,06,15.50
2015,09,21,18,07,15.50
2015,09,21,18,08,15.40
2015,09,21,18,09,15.40
2015,09,21,18,11,15.30
2015,09,21,18,12,15.30
2015,09,21,18,13,15.30
2015,09,21,18,14,15.30
2015,09,21,18,16,15.30
2015,09,21,18,17,15.30
2015,09,21,18,18,15.20
2015,09,21,18,19,15.20
2015,09,21,18,21,15.20
2015,09,21,18,22,15.10
2015,09,21,18,23,15.10
2015,09,21,18,24,15.10
2015,09,21,18,26,15.00
2015,09,21,18,27,15.00
2015,09,21,18,28,15.00
2015,09,21,18,29,15.00
2015,09,21,18,31,14.90
2015,09,21,18,32,14.90
2015,09,21,18,33,14.90
2015,09,21,18,34,14.90
2015,09,21,18,36,14.80
2015,09,21,18,37,14.80
2015,09,21,18,38,14.80
2015,09,21,18,39,14.80
2015,09,21,18,41,14.70
2015,09,21,18,42,14.70
2015,09,21,18,43,14.70
2015,09,21,18,44,14.60
2015,09,21,18,46,14.60
2015,09,21,18,47,14.60
2015,09,21,18,48,14.50
2015,09,21,18,49,14.50
2015,09,21,18,51,14.50
2015,09,21,18,52,14.40
2015,09,21,18,53,14.40
2015,09,21,18,54,14.40
2015,09,21,18,56,14.30
2015,09,21,18,57,14.30
2015,09,21,18,58,14.20
2015,09,21,18,59,14.20
2015,09,21,19,01,14.20
2015,09,21,19,02,14.20
2015,09,21,19,03,14.10
2015,09,21,19,04,14.10
2015,09,21,19,06,14.00
2015,09,21,19,07,14.00
2015,09,21,19,08,13.90
2015,09,21,19,09,13.90
2015,09,21,19,11,13.90
2015,09,21,19,12,13.80
2015,09,21,19,13,13.80
2015,09,21,19,14,13.80
2015,09,21,19,16,13.70
2015,09,21,19,17,13.70
2015,09,21,19,18,13.70
2015,09,21,19,19,13.70
2015,09,21,19,21,13.60
2015,09,21,19,22,13.60
2015,09,21,19,23,13.50
2015,09,21,19,24,13.50
2015,09,21,19,25,13.40
2015,09,21,19,26,13.40
2015,09,21,19,27,13.40
2015,09,21,19,28,13.30
2015,09,21,19,29,13.30
2015,09,21,19,30,13.30
2015,09,21,19,31,13.30
2015,09,21,19,32,13.30
2015,09,21,19,33,13.20
2015,09,21,19,34,13.20
2015,09,21,19,35,13.20
2015,09,21,19,36,13.10
2015,09,21,19,37,13.10
2015,09,21,19,38,13.10
2015,09,21,19,39,13.10
2015,09,21,19,40,13.00
2015,09,21,19,41,13.00
2015,09,21,19,42,13.00
2015,09,21,19,43,13.00
2015,09,21,19,44,12.90
2015,09,21,19,45,12.90
2015,09,21,19,46,12.90
2015,09,21,19,47,12.90
2015,09,21,19,48,12.80
2015,09,21,19,49,12.80
2015,09,21,19,50,12.80
2015,09,21,19,51,12.80
2015,09,21,19,52,12.80
2015,09,21,19,53,12.80
2015,09,21,19,54,12.80
2015,09,21,19,55,12.80
2015,09,21,19,56,12.80
2015,09,21,19,57,12.80
2015,09,21,19,58,12.80
2015,09,21,19,59,12.70
2015,09,21,20,00,12.70
2015,09,21,20,01,12.70
2015,09,21,20,02,12.70
2015,09,21,20,03,12.70
2015,09,21,20,04,12.60
2015,09,21,20,05,12.60
2015,09,21,20,07,12.60
2015,09,21,20,08,12.60
2015,09,21,20,09,12.60
2015,09,21,20,11,12.50
2015,09,21,20,12,12.50
2015,09,21,20,13,12.50
2015,09,21,20,14,12.50
2015,09,21,20,16,12.40
2015,09,21,20,17,12.40
2015,09,21,20,18,12.40
2015,09,21,20,19,12.40
2015,09,21,20,21,12.40
2015,09,21,20,22,12.30
2015,09,21,20,23,12.30
2015,09,21,20,24,12.30
2015,09,21,20,26,12.30
2015,09,21,20,27,12.30
2015,09,21,20,28,12.30
2015,09,21,20,29,12.30